Weather History for Cahokia, IL

Change the Weather History Date:

Tuesday, March 5, 2013

  Actual Average Record
Temperature  
Mean Temperature 37 °F -  
Max Temperature 42 °F 43 °F 82 °F (1956)
Min Temperature 32 °F 31 °F 2 °F (1960)
Degree Days  
Heating Degree Days 28    
Moisture  
Dew Point 28 °F    
Average Humidity 75    
Maximum Humidity 92    
Minimum Humidity 55    
Precipitation  
Precipitation 0.09 in - - ()
Sea Level Pressure  
Sea Level Pressure 29.97 in    
Wind  
Wind Speed 13 mph (NW)    
Max Wind Speed 25 mph    
Max Gust Speed 41 mph    
Visibility 8 miles    
Events Fog , Rain , Snow    
Averages and records for this station are not official NWS values.
T = Trace of Precipitation, MM = Missing Value Source: NWS Daily Summary

Daily Weather History Graph

Daily Weather History Graph

Search for Another Location

Airport:

Trip Planner

Search our weather history database for the weather conditions in past years. The results will help you decide how hot, cold, wet, or windy it might be!

Date:

Astronomy

Mar. 05, 2013 Rise Set
Actual Time 6:26 AM CST 5:58 PM CST
Civil Twilight 6:00 AM CST 6:24 PM CST
Nautical Twilight 5:29 AM CST 6:55 PM CST
Astronomical Twilight 4:58 AM CST 7:26 PM CST
Moon 1:35 AM CST (3/5) 11:40 AM CST (3/5)
Length of Visible Light 12h 24m
Length of Day
11h 31m
Last Quarter, 40% of the Moon is Illuminated
Mar 5
Last Quarter
Mar 11
New
Mar 19
First Quarter
Mar 27
Full
Apr 2
Last Quarter

Hourly Weather History & Observations

Time (CST) Temp. Windchill Dew Point Humidity Pressure Visibility Wind Dir Wind Speed Gust Speed Precip Events Conditions
1:53 AM 42.1 °F 40.2 °F 33.1 °F 70% 29.81 in 10.0 mi North 3.5 mph - N/A   Overcast
2:53 AM 41.0 °F 38.0 °F 33.1 °F 73% 29.80 in 10.0 mi North 4.6 mph - N/A   Overcast
3:18 AM 39.2 °F 35.9 °F 32.0 °F 75% 29.79 in 10.0 mi NNE 4.6 mph - N/A   Mostly Cloudy
3:53 AM 39.9 °F - 33.1 °F 77% 29.81 in 10.0 mi Calm Calm - N/A   Overcast
4:53 AM 39.9 °F 37.8 °F 33.1 °F 77% 29.83 in 10.0 mi WNW 3.5 mph - N/A   Overcast
5:53 AM 39.9 °F 31.8 °F 32.0 °F 73% 29.85 in 10.0 mi WNW 15.0 mph - N/A   Overcast
6:05 AM 39.2 °F 30.5 °F 32.0 °F 75% 29.85 in 10.0 mi NW 16.1 mph 23.0 mph N/A   Overcast
7:53 AM 35.1 °F 24.8 °F 30.9 °F 85% 29.88 in 6.0 mi WNW 17.3 mph 24.2 mph 0.00 in Rain Rain
8:53 AM 34.0 °F 24.6 °F 30.9 °F 89% 29.92 in 2.0 mi WNW 13.8 mph - 0.01 in Snow Light Snow
9:15 AM 33.8 °F 23.9 °F 30.2 °F 87% 29.92 in 0.8 mi NW 15.0 mph 23.0 mph 0.01 in Snow Light Snow
9:23 AM 33.8 °F 24.3 °F 30.2 °F 87% 29.91 in 0.8 mi WNW 13.8 mph - 0.02 in Snow Light Snow
9:53 AM 33.1 °F 23.0 °F 30.9 °F 92% 29.92 in 0.2 mi NW 15.0 mph 19.6 mph 0.05 in Fog , Snow Snow
10:07 AM 33.8 °F 24.8 °F 30.2 °F 87% 29.92 in 0.5 mi NW 12.7 mph - 0.01 in Fog , Snow Snow
10:49 AM 33.8 °F 24.3 °F 30.2 °F 87% 29.93 in 1.2 mi WNW 13.8 mph - 0.03 in Snow Light Snow
10:53 AM 33.1 °F 23.0 °F 30.9 °F 92% 29.94 in 1.8 mi WNW 15.0 mph - 0.03 in Snow Light Snow
11:11 AM 33.8 °F 23.9 °F 30.2 °F 87% 29.93 in 2.0 mi WNW 15.0 mph - 0.00 in Snow Light Snow
11:19 AM 33.8 °F 21.6 °F 30.2 °F 87% 29.93 in 5.0 mi NW 23.0 mph 28.8 mph 0.00 in   Overcast
11:53 AM 35.1 °F 23.3 °F 30.9 °F 85% 29.94 in 8.0 mi WNW 23.0 mph 32.2 mph 0.00 in   Overcast
12:53 PM 35.1 °F 23.8 °F 27.0 °F 72% 29.95 in 10.0 mi WNW 20.7 mph 31.1 mph N/A   Overcast
1:48 PM 35.6 °F 24.0 °F 26.6 °F 70% 29.95 in 10.0 mi WNW 23.0 mph 33.4 mph N/A   Overcast
1:53 PM 37.0 °F 26.4 °F 26.1 °F 65% 29.96 in 10.0 mi WNW 20.7 mph 28.8 mph N/A   Overcast
2:53 PM 36.0 °F 23.9 °F 21.0 °F 55% 29.99 in 10.0 mi WNW 25.3 mph 41.4 mph N/A   Overcast
3:53 PM 34.0 °F 21.8 °F 21.0 °F 59% 30.02 in 10.0 mi WNW 23.0 mph 38.0 mph N/A   Overcast
4:53 PM 34.0 °F 21.3 °F 21.9 °F 61% 30.03 in 10.0 mi WNW 25.3 mph 33.4 mph N/A   Overcast
5:53 PM 33.1 °F 21.5 °F 24.1 °F 70% 30.04 in 7.0 mi WNW 19.6 mph 27.6 mph 0.00 in Snow Light Snow
6:50 PM 32.0 °F 20.1 °F 24.8 °F 75% 30.04 in 9.0 mi WNW 19.6 mph 27.6 mph 0.00 in   Overcast
6:53 PM 32.0 °F 20.5 °F 25.0 °F 75% 30.05 in 10.0 mi WNW 18.4 mph 27.6 mph 0.00 in   Overcast
7:14 PM 33.8 °F 22.5 °F 24.8 °F 70% 30.05 in 10.0 mi WNW 19.6 mph 31.1 mph N/A   Overcast
7:24 PM 33.8 °F 21.6 °F 24.8 °F 70% 30.05 in 10.0 mi WNW 23.0 mph 35.7 mph N/A   Overcast
7:53 PM 32.0 °F 20.8 °F 25.0 °F 75% 30.07 in 7.0 mi WNW 17.3 mph 28.8 mph 0.00 in Snow Light Snow
8:53 PM 33.1 °F 21.5 °F 24.1 °F 70% 30.08 in 10.0 mi WNW 19.6 mph 25.3 mph 0.00 in   Overcast
9:53 PM 34.0 °F 21.8 °F 24.1 °F 67% 30.10 in 10.0 mi WNW 23.0 mph 33.4 mph N/A   Overcast
10:03 PM 33.8 °F 22.5 °F 24.8 °F 70% 30.10 in 8.0 mi NW 19.6 mph 31.1 mph 0.00 in Snow Light Snow
10:24 PM 33.8 °F 21.9 °F 23.0 °F 65% 30.11 in 10.0 mi NW 21.9 mph 33.4 mph 0.00 in   Overcast
10:53 PM 33.1 °F 21.5 °F 25.0 °F 72% 30.12 in 8.0 mi WNW 19.6 mph 36.8 mph 0.00 in   Overcast
11:18 PM 33.8 °F 21.3 °F 24.8 °F 70% 30.12 in 10.0 mi NW 24.2 mph 29.9 mph 0.00 in   Overcast
11:53 PM 33.1 °F 21.9 °F 25.0 °F 72% 30.13 in 9.0 mi NW 18.4 mph - 0.00 in   Overcast